This is the latest recevied weather packets stored in our database for station/object VA3BOO. If no packets are shown the sender has not sent any weather packets the latest 10 day(s).
| Time | Temp. | Humidity | Pressure | Rain* | Wind** | Luminosity | Snow |
|---|---|---|---|---|---|---|---|
| 1777146304 | 14.44° C | 34% | 1014 hPa | 0 mm | - | 217 W/m² | - |
| 1777146004 | 14.44° C | 35% | 1013.9 hPa | 0 mm | - | 244 W/m² | - |
| 1777145704 | 14.44° C | 36% | 1013.6 hPa | 0 mm | - | 235 W/m² | - |
| 1777145404 | 14.44° C | 35% | 1013.8 hPa | 0 mm | - | 244 W/m² | - |
| 1777145104 | 14.44° C | 36% | 1013.8 hPa | 0 mm | - | 281 W/m² | - |
| 1777144804 | 14.44° C | 35% | 1013.9 hPa | 0 mm | - | 272 W/m² | - |
| 1777144504 | 14.44° C | 35% | 1013.9 hPa | 0 mm | - | 287 W/m² | - |
| 1777144204 | 14.44° C | 35% | 1013.8 hPa | 0 mm | - | 357 W/m² | - |
| 1777143904 | 14.44° C | 35% | 1013.8 hPa | 0 mm | - | 363 W/m² | - |
| 1777143604 | 14.44° C | 34% | 1013.9 hPa | 0 mm | - | 344 W/m² | - |
| 1777143304 | 14.44° C | 36% | 1013.9 hPa | 0 mm | - | 537 W/m² | - |
| 1777143004 | 15° C | 34% | 1014 hPa | 0 mm | - | 556 W/m² | - |
| 1777142704 | 15° C | 34% | 1014 hPa | 0 mm | - | 557 W/m² | - |
| 1777142404 | 14.44° C | 35% | 1014.3 hPa | 0 mm | - | 671 W/m² | - |
| 1777142104 | 14.44° C | 36% | 1014 hPa | 0 mm | - | 655 W/m² | - |
| 1777141804 | 13.89° C | 37% | 1014 hPa | 0 mm | - | 579 W/m² | - |
| 1777141504 | 13.89° C | 36% | 1014.2 hPa | 0 mm | - | 479 W/m² | - |
| 1777141204 | 13.89° C | 37% | 1014.2 hPa | 0 mm | - | 387 W/m² | - |
| 1777140904 | 13.33° C | 36% | 1014.2 hPa | 0 mm | - | 413 W/m² | - |
| 1777140604 | 13.33° C | 38% | 1014.1 hPa | 0 mm | - | 356 W/m² | - |
| 1777140304 | 13.33° C | 36% | 1014 hPa | 0 mm | - | 301 W/m² | - |
| 1777140004 | 13.33° C | 36% | 1014.5 hPa | 0 mm | - | 288 W/m² | - |
| 1777139704 | 13.33° C | 36% | 1014.3 hPa | 0 mm | - | 284 W/m² | - |
| 1777139404 | 13.33° C | 37% | 1014.1 hPa | 0 mm | - | 292 W/m² | - |
| 1777139104 | 12.78° C | 37% | 1014.5 hPa | 0 mm | - | 293 W/m² | - |
* Rain latest hour (hover to see other rain measurements)
** Current wind speed in m/s (hover to see current wind gust speed)